This demonstration page uses our WeatherBlox Daily Observations layout. Learn more.

Left ArrowRight Arrow

41.55636, -103.73856

Hourly Observations for February 5, 2020

Temp ( °F °C ) Dew Point ( °F °C ) Humidity (%) Winds ( mph kmh ) Pressure ( in mb ) Visibility ( mi km ) Precip ( " mm )
12:58 am 00:58 Cloudy 12 -11.1 7 -13.9 80 80 SSW 3 6 30.33 1027 10 16 N/A
1:58 am 01:58 Mostly Cloudy 10 -12.2 6 -14.6 83 83 S 8 13 30.32 1027 10 16 N/A
2:58 am 02:58 Mostly Clear 7 -13.8 4 -15.4 88 88 S 6 9 30.31 1027 10 16 N/A
3:58 am 03:58 Clear 3 -15.9 N/A 85 85 SSW 8 13 30.32 1027 10 16 N/A
4:58 am 04:58 Clear 4 -15.8 N/A 85 85 SW 10 17 30.29 1026 10 16 N/A
5:58 am 05:58 Mostly Cloudy 6 -14.3 3 -16 87 87 SSW 15 24 30.26 1025 10 16 N/A
6:58 am 06:58 Clear 7 -13.9 4 -15.6 87 87 WSW 10 17 30.24 1024 10 16 N/A
7:58 am 07:58 Clear 6 -14.6 2 -16.9 83 83 SW 6 9 30.19 1022 10 16 N/A
8:59 am 08:59 Clear 7 -13.9 4 -15.5 88 88 SSW 18 30 30.15 1021 10 16 N/A
9:58 am 09:58 Clear 6 -14.7 2 -16.9 84 84 SW 17 28 30.13 1020 10 16 N/A
10:58 am 10:58 Clear 5 -14.9 1 -17.3 82 82 SW 18 30 30.11 1020 10 16 N/A
11:58 am 11:58 Clear 3 -16.3 -3 -19.2 79 79 SW 9 15 30.13 1020 10 16 N/A
12:58 pm 12:58 Clear 1 -17.1 -4 -20.2 77 77 SSW 12 19 30.13 1020 10 16 N/A
1:58 pm 13:58 Clear N/A -6 -21 76 76 SW 7 11 30.14 1021 10 16 N/A
2:58 pm 14:58 Sunny 4 -15.5 -3 -19.7 70 70 WSW 8 13 30.13 1020 10 16 N/A
3:58 pm 15:58 Sunny 11 -11.8 2 -16.7 67 67 W 8 13 30.13 1020 10 16 N/A
4:58 pm 16:58 Sunny 15 -9.5 4 -15.6 61 61 W 7 11 30.09 1019 10 16 N/A
5:58 pm 17:58 Sunny 19 -7 11 -11.8 69 69 NW 12 19 30.08 1019 10 16 N/A
6:58 pm 18:58 Sunny 23 -5.2 11 -11.9 60 60 NW 21 33 30.02 1017 10 16 N/A
7:58 pm 19:58 Mostly Cloudy 24 -4.7 11 -11.9 58 58 NW 20 31 30.00 1016 10 16 N/A
8:58 pm 20:58 Mostly Cloudy 24 -4.6 11 -11.7 58 58 NW 23 37 29.96 1015 10 16 N/A
9:58 pm 21:58 Sunny 24 -4.6 12 -11.3 60 60 NW 23 37 29.97 1015 10 16 N/A
10:58 pm 22:58 Mostly Sunny 23 -4.9 11 -11.5 60 60 WNW 18 30 29.97 1015 10 16 N/A
11:58 pm 23:58 Mostly Cloudy 21 -6.1 11 -11.6 65 65 WNW 12 19 29.97 1015 10 16 N/A

Powered by AerisWeather